owner,sensor,date,latitude,longitude,vertical_datum,wind_speed,wind_to_direction,wind_speed_of_gust,qcFlag 
TCOON,ioos:station:TCOON:005:1,2017-11-01T00:00:00Z,27.6346,-97.2370,0.0,4.4,134.0,5.5,'11111222,11111222,11111222' 
TCOON,ioos:station:TCOON:005:1,2017-11-01T00:06:00Z,27.6346,-97.2370,0.0,4.5,138.0,6.2,'11111222,11111222,11111222' 
TCOON,ioos:station:TCOON:005:1,2017-11-01T00:12:00Z,27.6346,-97.2370,0.0,4.3,135.0,5.8,'11111222,11111222,11111222' 
TCOON,ioos:station:TCOON:005:1,2017-11-01T00:18:00Z,27.6346,-97.2370,0.0,4.3,135.0,5.8,'1111122,1111122,1111122' 
TCOON,ioos:station:TCOON:005:1,2017-11-01T00:24:00Z,27.6346,-97.2370,0.0,2.9,127.0,5.2,'11111222,11111222,11111222' 
TCOON,ioos:station:TCOON:005:1,2017-11-01T00:30:00Z,27.6346,-97.2370,0.0,3.9,129.0,4.6,'11111222,11111222,11111222' 
TCOON,ioos:station:TCOON:005:1,2017-11-01T00:36:00Z,27.6346,-97.2370,0.0,3.0,125.0,4.3,'11111222,11111222,11111222' 
TCOON,ioos:station:TCOON:005:1,2017-11-01T00:42:00Z,27.6346,-97.2370,0.0,3.0,125.0,3.7,'11111222,11111222,11111222' 
TCOON,ioos:station:TCOON:005:1,2017-11-01T00:48:00Z,27.6346,-97.2370,0.0,2.8,124.0,4.3,'11111222,11111222,11111222' 
TCOON,ioos:station:TCOON:005:1,2017-11-01T00:54:00Z,27.6346,-97.2370,0.0,2.8,121.0,3.5,'11111222,11111222,11111222' 
TCOON,ioos:station:TCOON:005:1,2017-11-01T01:00:00Z,27.6346,-97.2370,0.0,2.9,118.0,3.6,'11111222,11111222,11111222' 
TCOON,ioos:station:TCOON:005:1,2017-11-01T01:06:00Z,27.6346,-97.2370,0.0,3.3,126.0,4.4,'11111222,11111222,11111222' 
TCOON,ioos:station:TCOON:005:1,2017-11-01T01:12:00Z,27.6346,-97.2370,0.0,4.4,128.0,5.3,'11111222,11111222,11111222' 
TCOON,ioos:station:TCOON:005:1,2017-11-01T01:18:00Z,27.6346,-97.2370,0.0,4.4,128.0,5.3,'1111122,1111122,1111122' 
TCOON,ioos:station:TCOON:005:1,2017-11-01T01:24:00Z,27.6346,-97.2370,0.0,3.1,132.0,5.5,'11111222,11111222,11111222' 
TCOON,ioos:station:TCOON:005:1,2017-11-01T01:30:00Z,27.6346,-97.2370,0.0,3.9,135.0,4.7,'11111222,11111222,11111222' 
TCOON,ioos:station:TCOON:005:1,2017-11-01T01:36:00Z,27.6346,-97.2370,0.0,3.4,141.0,5.4,'11111222,11111222,11111222' 
TCOON,ioos:station:TCOON:005:1,2017-11-01T01:42:00Z,27.6346,-97.2370,0.0,4.0,140.0,5.4,'11111222,11111222,11111222' 
TCOON,ioos:station:TCOON:005:1,2017-11-01T01:48:00Z,27.6346,-97.2370,0.0,4.7,142.0,6.0,'11111222,11111222,11111222' 
TCOON,ioos:station:TCOON:005:1,2017-11-01T01:54:00Z,27.6346,-97.2370,0.0,5.3,145.0,7.0,'11111222,11111222,11111222' 
TCOON,ioos:station:TCOON:005:1,2017-11-01T02:00:00Z,27.6346,-97.2370,0.0,3.9,149.0,6.7,'11111222,11111222,11111222' 
TCOON,ioos:station:TCOON:005:1,2017-11-01T02:06:00Z,27.6346,-97.2370,0.0,4.1,142.0,5.6,'11111222,11111222,11111222' 
TCOON,ioos:station:TCOON:005:1,2017-11-01T02:12:00Z,27.6346,-97.2370,0.0,3.9,144.0,5.3,'11111222,11111222,11111222' 
TCOON,ioos:station:TCOON:005:1,2017-11-01T02:18:00Z,27.6346,-97.2370,0.0,3.9,144.0,5.3,'1111122,1111122,1111122' 
TCOON,ioos:station:TCOON:005:1,2017-11-01T02:24:00Z,27.6346,-97.2370,0.0,4.7,149.0,6.0,'11111222,11111222,11111222' 
TCOON,ioos:station:TCOON:005:1,2017-11-01T02:30:00Z,27.6346,-97.2370,0.0,4.0,146.0,5.6,'11111222,11111222,11111222' 
TCOON,ioos:station:TCOON:005:1,2017-11-01T02:36:00Z,27.6346,-97.2370,0.0,4.4,143.0,5.9,'11111222,11111222,11111222' 
TCOON,ioos:station:TCOON:005:1,2017-11-01T02:42:00Z,27.6346,-97.2370,0.0,4.6,146.0,5.8,'11111222,11111222,11111222' 
TCOON,ioos:station:TCOON:005:1,2017-11-01T02:48:00Z,27.6346,-97.2370,0.0,4.0,150.0,5.3,'11111222,11111222,11111222' 
TCOON,ioos:station:TCOON:005:1,2017-11-01T02:54:00Z,27.6346,-97.2370,0.0,5.0,138.0,6.6,'11111222,11111222,11111222' 
TCOON,ioos:station:TCOON:005:1,2017-11-01T03:00:00Z,27.6346,-97.2370,0.0,4.1,141.0,6.2,'11111222,11111222,11111222' 
TCOON,ioos:station:TCOON:005:1,2017-11-01T03:06:00Z,27.6346,-97.2370,0.0,4.6,143.0,6.3,'11111222,11111222,11111222' 
TCOON,ioos:station:TCOON:005:1,2017-11-01T03:12:00Z,27.6346,-97.2370,0.0,4.1,147.0,5.5,'11111222,11111222,11111222' 
TCOON,ioos:station:TCOON:005:1,2017-11-01T03:18:00Z,27.6346,-97.2370,0.0,4.3,146.0,5.9,'11111222,11111222,11111222' 
TCOON,ioos:station:TCOON:005:1,2017-11-01T03:24:00Z,27.6346,-97.2370,0.0,4.3,146.0,5.9,'1111122,1111122,1111122' 
TCOON,ioos:station:TCOON:005:1,2017-11-01T03:30:00Z,27.6346,-97.2370,0.0,4.7,148.0,6.6,'11111222,11111222,11111222' 
TCOON,ioos:station:TCOON:005:1,2017-11-01T03:36:00Z,27.6346,-97.2370,0.0,4.4,150.0,6.4,'11111222,11111222,11111222' 
TCOON,ioos:station:TCOON:005:1,2017-11-01T03:42:00Z,27.6346,-97.2370,0.0,5.0,153.0,6.7,'11111222,11111222,11111222' 
TCOON,ioos:station:TCOON:005:1,2017-11-01T03:48:00Z,27.6346,-97.2370,0.0,4.7,160.0,6.2,'11111222,11111222,11111222' 
TCOON,ioos:station:TCOON:005:1,2017-11-01T03:54:00Z,27.6346,-97.2370,0.0,4.0,164.0,6.6,'11111222,11111222,11111222' 
TCOON,ioos:station:TCOON:005:1,2017-11-01T04:00:00Z,27.6346,-97.2370,0.0,3.9,175.0,5.1,'11111222,11111222,11111222' 
TCOON,ioos:station:TCOON:005:1,2017-11-01T04:06:00Z,27.6346,-97.2370,0.0,3.5,179.0,4.8,'11111222,11111222,11111222' 
TCOON,ioos:station:TCOON:005:1,2017-11-01T04:12:00Z,27.6346,-97.2370,0.0,3.5,176.0,4.4,'11111222,11111222,11111222' 
TCOON,ioos:station:TCOON:005:1,2017-11-01T04:18:00Z,27.6346,-97.2370,0.0,3.5,176.0,4.4,'1111122,1111122,1111122' 
TCOON,ioos:station:TCOON:005:1,2017-11-01T04:24:00Z,27.6346,-97.2370,0.0,3.3,177.0,4.4,'11111222,11111222,11111222' 
TCOON,ioos:station:TCOON:005:1,2017-11-01T04:30:00Z,27.6346,-97.2370,0.0,3.4,182.0,4.0,'11111222,11111222,11111222' 
TCOON,ioos:station:TCOON:005:1,2017-11-01T04:36:00Z,27.6346,-97.2370,0.0,2.9,215.0,3.6,'11111222,11111222,11111222' 
TCOON,ioos:station:TCOON:005:1,2017-11-01T04:42:00Z,27.6346,-97.2370,0.0,2.8,212.0,3.5,'11111222,11111222,11111222' 
TCOON,ioos:station:TCOON:005:1,2017-11-01T04:48:00Z,27.6346,-97.2370,0.0,1.8,216.0,2.9,'11111222,11111222,11111222' 
TCOON,ioos:station:TCOON:005:1,2017-11-01T04:54:00Z,27.6346,-97.2370,0.0,1.5,227.0,2.1,'11111222,11111222,11111222' 
TCOON,ioos:station:TCOON:005:1,2017-11-01T05:00:00Z,27.6346,-97.2370,0.0,1.8,232.0,2.4,'11111222,11111222,11111222' 
TCOON,ioos:station:TCOON:005:1,2017-11-01T05:06:00Z,27.6346,-97.2370,0.0,2.3,232.0,2.9,'11111222,11111222,11111222' 
TCOON,ioos:station:TCOON:005:1,2017-11-01T05:12:00Z,27.6346,-97.2370,0.0,2.2,219.0,3.0,'11111222,11111222,11111222' 
TCOON,ioos:station:TCOON:005:1,2017-11-01T05:18:00Z,27.6346,-97.2370,0.0,2.2,219.0,3.0,'1111122,1111122,1111122' 
TCOON,ioos:station:TCOON:005:1,2017-11-01T05:24:00Z,27.6346,-97.2370,0.0,2.6,225.0,3.1,'11111222,11111222,11111222' 
TCOON,ioos:station:TCOON:005:1,2017-11-01T05:30:00Z,27.6346,-97.2370,0.0,2.6,227.0,3.2,'11111222,11111222,11111222' 
TCOON,ioos:station:TCOON:005:1,2017-11-01T05:36:00Z,27.6346,-97.2370,0.0,2.5,222.0,3.4,'11111222,11111222,11111222' 
TCOON,ioos:station:TCOON:005:1,2017-11-01T05:42:00Z,27.6346,-97.2370,0.0,1.6,229.0,2.6,'11111222,11111222,11111222' 
TCOON,ioos:station:TCOON:005:1,2017-11-01T05:48:00Z,27.6346,-97.2370,0.0,1.6,215.0,2.3,'11111222,11111222,11111222' 
TCOON,ioos:station:TCOON:005:1,2017-11-01T05:54:00Z,27.6346,-97.2370,0.0,1.8,207.0,2.2,'11111222,11111222,11111222' 
TCOON,ioos:station:TCOON:005:1,2017-11-01T06:00:00Z,27.6346,-97.2370,0.0,1.6,208.0,2.1,'11111222,11111222,11111222' 
TCOON,ioos:station:TCOON:005:1,2017-11-01T06:06:00Z,27.6346,-97.2370,0.0,1.6,201.0,1.8,'11111222,11111222,11111222' 
TCOON,ioos:station:TCOON:005:1,2017-11-01T06:12:00Z,27.6346,-97.2370,0.0,1.8,190.0,2.2,'11111222,11111222,11111222' 
TCOON,ioos:station:TCOON:005:1,2017-11-01T06:18:00Z,27.6346,-97.2370,0.0,1.8,190.0,2.2,'1111122,1111122,1111122' 
TCOON,ioos:station:TCOON:005:1,2017-11-01T06:24:00Z,27.6346,-97.2370,0.0,3.3,199.0,3.7,'11111222,11111222,11111222' 
TCOON,ioos:station:TCOON:005:1,2017-11-01T06:30:00Z,27.6346,-97.2370,0.0,3.3,201.0,3.9,'11111222,11111222,11111222' 
TCOON,ioos:station:TCOON:005:1,2017-11-01T06:36:00Z,27.6346,-97.2370,0.0,3.2,201.0,4.1,'11111222,11111222,11111222' 
TCOON,ioos:station:TCOON:005:1,2017-11-01T06:42:00Z,27.6346,-97.2370,0.0,3.5,203.0,4.0,'11111222,11111222,11111222' 
TCOON,ioos:station:TCOON:005:1,2017-11-01T06:48:00Z,27.6346,-97.2370,0.0,3.4,205.0,4.4,'11111222,11111222,11111222' 
TCOON,ioos:station:TCOON:005:1,2017-11-01T06:54:00Z,27.6346,-97.2370,0.0,3.0,205.0,3.8,'11111222,11111222,11111222' 
TCOON,ioos:station:TCOON:005:1,2017-11-01T07:00:00Z,27.6346,-97.2370,0.0,3.1,216.0,3.7,'11111222,11111222,11111222' 
TCOON,ioos:station:TCOON:005:1,2017-11-01T07:06:00Z,27.6346,-97.2370,0.0,3.4,247.0,4.4,'11111222,11111222,11111222' 
TCOON,ioos:station:TCOON:005:1,2017-11-01T07:12:00Z,27.6346,-97.2370,0.0,3.1,269.0,4.1,'11111222,11111222,11111222' 
TCOON,ioos:station:TCOON:005:1,2017-11-01T07:18:00Z,27.6346,-97.2370,0.0,3.1,269.0,4.1,'1111122,1111122,1111122' 
TCOON,ioos:station:TCOON:005:1,2017-11-01T07:24:00Z,27.6346,-97.2370,0.0,3.6,290.0,4.6,'11111222,11111222,11111222' 
TCOON,ioos:station:TCOON:005:1,2017-11-01T07:30:00Z,27.6346,-97.2370,0.0,2.9,296.0,4.1,'11111222,11111222,11111222' 
TCOON,ioos:station:TCOON:005:1,2017-11-01T07:36:00Z,27.6346,-97.2370,0.0,3.2,298.0,3.9,'11111222,11111222,11111222' 
TCOON,ioos:station:TCOON:005:1,2017-11-01T07:42:00Z,27.6346,-97.2370,0.0,2.5,299.0,3.4,'11111222,11111222,11111222' 
TCOON,ioos:station:TCOON:005:1,2017-11-01T07:48:00Z,27.6346,-97.2370,0.0,2.0,295.0,2.4,'11111222,11111222,11111222' 
TCOON,ioos:station:TCOON:005:1,2017-11-01T07:54:00Z,27.6346,-97.2370,0.0,2.1,291.0,2.5,'11111222,11111222,11111222' 
TCOON,ioos:station:TCOON:005:1,2017-11-01T08:00:00Z,27.6346,-97.2370,0.0,1.8,286.0,2.4,'11111222,11111222,11111222' 
TCOON,ioos:station:TCOON:005:1,2017-11-01T08:06:00Z,27.6346,-97.2370,0.0,1.5,285.0,2.0,'11111222,11111222,11111222' 
TCOON,ioos:station:TCOON:005:1,2017-11-01T08:12:00Z,27.6346,-97.2370,0.0,1.0,275.0,1.7,'11111222,11111222,11111222' 
TCOON,ioos:station:TCOON:005:1,2017-11-01T08:18:00Z,27.6346,-97.2370,0.0,1.0,275.0,1.7,'1111122,1111122,1111122' 
TCOON,ioos:station:TCOON:005:1,2017-11-01T08:24:00Z,27.6346,-97.2370,0.0,1.6,283.0,2.1,'11111222,11111222,11111222' 
TCOON,ioos:station:TCOON:005:1,2017-11-01T08:30:00Z,27.6346,-97.2370,0.0,1.1,279.0,1.6,'11111222,11111222,11111222' 
TCOON,ioos:station:TCOON:005:1,2017-11-01T08:36:00Z,27.6346,-97.2370,0.0,1.5,278.0,2.2,'11111222,11111222,11111222' 
TCOON,ioos:station:TCOON:005:1,2017-11-01T08:42:00Z,27.6346,-97.2370,0.0,2.0,273.0,2.7,'11111222,11111222,11111222' 
TCOON,ioos:station:TCOON:005:1,2017-11-01T08:48:00Z,27.6346,-97.2370,0.0,2.6,282.0,3.4,'11111222,11111222,11111222' 
TCOON,ioos:station:TCOON:005:1,2017-11-01T08:54:00Z,27.6346,-97.2370,0.0,2.8,284.0,3.7,'11111222,11111222,11111222' 
TCOON,ioos:station:TCOON:005:1,2017-11-01T09:00:00Z,27.6346,-97.2370,0.0,2.9,287.0,3.6,'11111222,11111222,11111222' 
TCOON,ioos:station:TCOON:005:1,2017-11-01T09:06:00Z,27.6346,-97.2370,0.0,2.3,281.0,3.5,'11111222,11111222,11111222' 
TCOON,ioos:station:TCOON:005:1,2017-11-01T09:12:00Z,27.6346,-97.2370,0.0,2.5,269.0,3.4,'11111222,11111222,11111222' 
TCOON,ioos:station:TCOON:005:1,2017-11-01T09:18:00Z,27.6346,-97.2370,0.0,2.5,269.0,3.4,'1111122,1111122,1111122' 
TCOON,ioos:station:TCOON:005:1,2017-11-01T09:24:00Z,27.6346,-97.2370,0.0,1.7,289.0,2.8,'11111222,11111222,11111222' 
TCOON,ioos:station:TCOON:005:1,2017-11-01T09:30:00Z,27.6346,-97.2370,0.0,2.4,289.0,3.2,'11111222,11111222,11111222' 
TCOON,ioos:station:TCOON:005:1,2017-11-01T09:36:00Z,27.6346,-97.2370,0.0,2.2,283.0,3.2,'11111222,11111222,11111222' 
TCOON,ioos:station:TCOON:005:1,2017-11-01T09:42:00Z,27.6346,-97.2370,0.0,1.6,270.0,2.5,'11111222,11111222,11111222' 
TCOON,ioos:station:TCOON:005:1,2017-11-01T09:48:00Z,27.6346,-97.2370,0.0,2.0,283.0,2.8,'11111222,11111222,11111222' 
TCOON,ioos:station:TCOON:005:1,2017-11-01T09:54:00Z,27.6346,-97.2370,0.0,2.0,272.0,2.3,'11111222,11111222,11111222' 
TCOON,ioos:station:TCOON:005:1,2017-11-01T10:00:00Z,27.6346,-97.2370,0.0,2.1,273.0,2.7,'11111222,11111222,11111222' 
TCOON,ioos:station:TCOON:005:1,2017-11-01T10:06:00Z,27.6346,-97.2370,0.0,2.1,280.0,3.6,'11111222,11111222,11111222' 
TCOON,ioos:station:TCOON:005:1,2017-11-01T10:12:00Z,27.6346,-97.2370,0.0,3.5,289.0,4.0,'11111222,11111222,11111222' 
TCOON,ioos:station:TCOON:005:1,2017-11-01T10:18:00Z,27.6346,-97.2370,0.0,3.5,289.0,4.0,'1111122,1111122,1111122' 
TCOON,ioos:station:TCOON:005:1,2017-11-01T10:24:00Z,27.6346,-97.2370,0.0,1.9,284.0,3.2,'11111222,11111222,11111222' 
TCOON,ioos:station:TCOON:005:1,2017-11-01T10:30:00Z,27.6346,-97.2370,0.0,2.8,287.0,3.2,'11111222,11111222,11111222' 
TCOON,ioos:station:TCOON:005:1,2017-11-01T10:36:00Z,27.6346,-97.2370,0.0,1.9,291.0,2.5,'11111222,11111222,11111222' 
TCOON,ioos:station:TCOON:005:1,2017-11-01T10:42:00Z,27.6346,-97.2370,0.0,1.3,274.0,2.3,'11111222,11111222,11111222' 
TCOON,ioos:station:TCOON:005:1,2017-11-01T10:48:00Z,27.6346,-97.2370,0.0,1.7,240.0,2.3,'11111222,11111222,11111222' 
TCOON,ioos:station:TCOON:005:1,2017-11-01T10:54:00Z,27.6346,-97.2370,0.0,1.3,247.0,2.3,'11111222,11111222,11111222' 
TCOON,ioos:station:TCOON:005:1,2017-11-01T11:00:00Z,27.6346,-97.2370,0.0,1.6,254.0,2.6,'11111222,11111222,11111222' 
TCOON,ioos:station:TCOON:005:1,2017-11-01T11:06:00Z,27.6346,-97.2370,0.0,1.9,254.0,2.8,'11111222,11111222,11111222' 
TCOON,ioos:station:TCOON:005:1,2017-11-01T11:12:00Z,27.6346,-97.2370,0.0,2.2,255.0,2.8,'11111222,11111222,11111222' 
TCOON,ioos:station:TCOON:005:1,2017-11-01T11:18:00Z,27.6346,-97.2370,0.0,2.2,255.0,2.8,'1111122,1111122,1111122' 
TCOON,ioos:station:TCOON:005:1,2017-11-01T11:24:00Z,27.6346,-97.2370,0.0,2.1,234.0,2.6,'11111222,11111222,11111222' 
TCOON,ioos:station:TCOON:005:1,2017-11-01T11:30:00Z,27.6346,-97.2370,0.0,2.0,234.0,2.6,'11111222,11111222,11111222' 
TCOON,ioos:station:TCOON:005:1,2017-11-01T11:36:00Z,27.6346,-97.2370,0.0,2.3,230.0,2.5,'11111222,11111222,11111222' 
TCOON,ioos:station:TCOON:005:1,2017-11-01T11:42:00Z,27.6346,-97.2370,0.0,2.2,220.0,2.9,'11111222,11111222,11111222' 
TCOON,ioos:station:TCOON:005:1,2017-11-01T11:48:00Z,27.6346,-97.2370,0.0,2.1,235.0,2.6,'11111222,11111222,11111222' 
TCOON,ioos:station:TCOON:005:1,2017-11-01T11:54:00Z,27.6346,-97.2370,0.0,2.1,231.0,2.7,'11111222,11111222,11111222' 
TCOON,ioos:station:TCOON:005:1,2017-11-01T12:00:00Z,27.6346,-97.2370,0.0,1.9,224.0,2.5,'11111222,11111222,11111222' 
TCOON,ioos:station:TCOON:005:1,2017-11-01T12:06:00Z,27.6346,-97.2370,0.0,1.9,239.0,2.4,'11111222,11111222,11111222' 
TCOON,ioos:station:TCOON:005:1,2017-11-01T12:12:00Z,27.6346,-97.2370,0.0,2.1,271.0,2.5,'11111222,11111222,11111222' 
TCOON,ioos:station:TCOON:005:1,2017-11-01T12:18:00Z,27.6346,-97.2370,0.0,2.1,271.0,2.5,'1111122,1111122,1111122' 
TCOON,ioos:station:TCOON:005:1,2017-11-01T12:24:00Z,27.6346,-97.2370,0.0,2.4,280.0,4.3,'11111222,11111222,11111222' 
TCOON,ioos:station:TCOON:005:1,2017-11-01T12:30:00Z,27.6346,-97.2370,0.0,3.0,280.0,3.7,'11111222,11111222,11111222' 
TCOON,ioos:station:TCOON:005:1,2017-11-01T12:36:00Z,27.6346,-97.2370,0.0,3.7,290.0,4.7,'11111222,11111222,11111222' 
TCOON,ioos:station:TCOON:005:1,2017-11-01T12:42:00Z,27.6346,-97.2370,0.0,3.6,296.0,4.2,'11111222,11111222,11111222' 
TCOON,ioos:station:TCOON:005:1,2017-11-01T12:48:00Z,27.6346,-97.2370,0.0,3.6,312.0,4.1,'11111222,11111222,11111222' 
TCOON,ioos:station:TCOON:005:1,2017-11-01T12:54:00Z,27.6346,-97.2370,0.0,4.6,325.0,5.1,'11111222,11111222,11111222' 
TCOON,ioos:station:TCOON:005:1,2017-11-01T13:00:00Z,27.6346,-97.2370,0.0,4.2,323.0,4.9,'11111222,11111222,11111222' 
TCOON,ioos:station:TCOON:005:1,2017-11-01T13:06:00Z,27.6346,-97.2370,0.0,3.9,316.0,4.5,'11111222,11111222,11111222' 
TCOON,ioos:station:TCOON:005:1,2017-11-01T13:12:00Z,27.6346,-97.2370,0.0,3.2,310.0,4.1,'11111222,11111222,11111222' 
TCOON,ioos:station:TCOON:005:1,2017-11-01T13:18:00Z,27.6346,-97.2370,0.0,3.2,310.0,4.1,'1111122,1111122,1111122' 
TCOON,ioos:station:TCOON:005:1,2017-11-01T13:24:00Z,27.6346,-97.2370,0.0,3.1,328.0,3.9,'11111222,11111222,11111222' 
TCOON,ioos:station:TCOON:005:1,2017-11-01T13:30:00Z,27.6346,-97.2370,0.0,3.2,323.0,4.0,'11111222,11111222,11111222' 
TCOON,ioos:station:TCOON:005:1,2017-11-01T13:36:00Z,27.6346,-97.2370,0.0,3.4,322.0,4.0,'11111222,11111222,11111222' 
TCOON,ioos:station:TCOON:005:1,2017-11-01T13:42:00Z,27.6346,-97.2370,0.0,2.7,324.0,3.5,'11111222,11111222,11111222' 
TCOON,ioos:station:TCOON:005:1,2017-11-01T13:48:00Z,27.6346,-97.2370,0.0,2.3,325.0,2.9,'11111222,11111222,11111222' 
TCOON,ioos:station:TCOON:005:1,2017-11-01T13:54:00Z,27.6346,-97.2370,0.0,2.4,324.0,3.0,'11111222,11111222,11111222' 
TCOON,ioos:station:TCOON:005:1,2017-11-01T14:00:00Z,27.6346,-97.2370,0.0,2.6,327.0,2.8,'11111222,11111222,11111222' 
TCOON,ioos:station:TCOON:005:1,2017-11-01T14:06:00Z,27.6346,-97.2370,0.0,3.2,335.0,3.6,'11111222,11111222,11111222' 
TCOON,ioos:station:TCOON:005:1,2017-11-01T14:12:00Z,27.6346,-97.2370,0.0,3.4,336.0,3.9,'11111222,11111222,11111222' 
TCOON,ioos:station:TCOON:005:1,2017-11-01T14:18:00Z,27.6346,-97.2370,0.0,3.4,336.0,3.9,'1111122,1111122,1111122' 
TCOON,ioos:station:TCOON:005:1,2017-11-01T14:24:00Z,27.6346,-97.2370,0.0,2.9,334.0,3.8,'11111222,11111222,11111222' 
TCOON,ioos:station:TCOON:005:1,2017-11-01T14:30:00Z,27.6346,-97.2370,0.0,2.7,327.0,3.5,'11111222,11111222,11111222' 
TCOON,ioos:station:TCOON:005:1,2017-11-01T14:36:00Z,27.6346,-97.2370,0.0,2.9,339.0,3.4,'11111222,11111222,11111222' 
TCOON,ioos:station:TCOON:005:1,2017-11-01T14:42:00Z,27.6346,-97.2370,0.0,3.4,344.0,4.1,'11111222,11111222,11111222' 
TCOON,ioos:station:TCOON:005:1,2017-11-01T14:48:00Z,27.6346,-97.2370,0.0,3.4,335.0,3.9,'11111222,11111222,11111222' 
TCOON,ioos:station:TCOON:005:1,2017-11-01T14:54:00Z,27.6346,-97.2370,0.0,3.3,325.0,3.7,'11111222,11111222,11111222' 
TCOON,ioos:station:TCOON:005:1,2017-11-01T15:00:00Z,27.6346,-97.2370,0.0,3.3,331.0,3.7,'11111222,11111222,11111222' 
TCOON,ioos:station:TCOON:005:1,2017-11-01T15:06:00Z,27.6346,-97.2370,0.0,4.0,326.0,4.5,'11111222,11111222,11111222' 
TCOON,ioos:station:TCOON:005:1,2017-11-01T15:12:00Z,27.6346,-97.2370,0.0,3.5,322.0,4.8,'11111222,11111222,11111222' 
TCOON,ioos:station:TCOON:005:1,2017-11-01T15:18:00Z,27.6346,-97.2370,0.0,4.1,318.0,4.6,'11111222,11111222,11111222' 
TCOON,ioos:station:TCOON:005:1,2017-11-01T15:24:00Z,27.6346,-97.2370,0.0,4.1,318.0,4.6,'1111122,1111122,1111122' 
TCOON,ioos:station:TCOON:005:1,2017-11-01T15:30:00Z,27.6346,-97.2370,0.0,3.7,323.0,4.3,'11111222,11111222,11111222' 
TCOON,ioos:station:TCOON:005:1,2017-11-01T15:36:00Z,27.6346,-97.2370,0.0,2.5,328.0,3.7,'11111222,11111222,11111222' 
TCOON,ioos:station:TCOON:005:1,2017-11-01T15:42:00Z,27.6346,-97.2370,0.0,2.5,333.0,3.3,'11111222,11111222,11111222' 
TCOON,ioos:station:TCOON:005:1,2017-11-01T15:48:00Z,27.6346,-97.2370,0.0,2.9,325.0,3.4,'11111222,11111222,11111222' 
TCOON,ioos:station:TCOON:005:1,2017-11-01T15:54:00Z,27.6346,-97.2370,0.0,3.0,335.0,3.5,'11111222,11111222,11111222' 
TCOON,ioos:station:TCOON:005:1,2017-11-01T16:00:00Z,27.6346,-97.2370,0.0,2.7,338.0,3.4,'11111222,11111222,11111222' 
TCOON,ioos:station:TCOON:005:1,2017-11-01T16:06:00Z,27.6346,-97.2370,0.0,2.5,338.0,3.3,'11111222,11111222,11111222' 
TCOON,ioos:station:TCOON:005:1,2017-11-01T16:12:00Z,27.6346,-97.2370,0.0,3.0,353.0,3.6,'11111222,11111222,11111222' 
TCOON,ioos:station:TCOON:005:1,2017-11-01T16:18:00Z,27.6346,-97.2370,0.0,3.0,353.0,3.6,'1111122,1111122,1111122' 
TCOON,ioos:station:TCOON:005:1,2017-11-01T16:24:00Z,27.6346,-97.2370,0.0,3.0,347.0,3.7,'11111222,11111222,11111222' 
TCOON,ioos:station:TCOON:005:1,2017-11-01T16:30:00Z,27.6346,-97.2370,0.0,2.6,359.0,3.4,'11111222,11111222,11111222' 
TCOON,ioos:station:TCOON:005:1,2017-11-01T16:36:00Z,27.6346,-97.2370,0.0,3.0,348.0,3.5,'11111222,11111222,11111222' 
TCOON,ioos:station:TCOON:005:1,2017-11-01T16:42:00Z,27.6346,-97.2370,0.0,3.6,344.0,4.1,'11111222,11111222,11111222' 
TCOON,ioos:station:TCOON:005:1,2017-11-01T16:48:00Z,27.6346,-97.2370,0.0,4.0,343.0,4.5,'11111222,11111222,11111222' 
TCOON,ioos:station:TCOON:005:1,2017-11-01T16:54:00Z,27.6346,-97.2370,0.0,3.8,348.0,4.5,'11111222,11111222,11111222' 
TCOON,ioos:station:TCOON:005:1,2017-11-01T17:00:00Z,27.6346,-97.2370,0.0,3.9,347.0,4.4,'11111222,11111222,11111222' 
TCOON,ioos:station:TCOON:005:1,2017-11-01T17:06:00Z,27.6346,-97.2370,0.0,3.9,344.0,4.5,'11111222,11111222,11111222' 
TCOON,ioos:station:TCOON:005:1,2017-11-01T17:12:00Z,27.6346,-97.2370,0.0,3.4,345.0,4.3,'11111222,11111222,11111222' 
TCOON,ioos:station:TCOON:005:1,2017-11-01T17:18:00Z,27.6346,-97.2370,0.0,3.4,345.0,4.3,'1111122,1111122,1111122' 
TCOON,ioos:station:TCOON:005:1,2017-11-01T17:24:00Z,27.6346,-97.2370,0.0,3.6,349.0,4.0,'11111222,11111222,11111222' 
TCOON,ioos:station:TCOON:005:1,2017-11-01T17:30:00Z,27.6346,-97.2370,0.0,3.0,349.0,4.0,'11111222,11111222,11111222' 
TCOON,ioos:station:TCOON:005:1,2017-11-01T17:36:00Z,27.6346,-97.2370,0.0,2.6,6.0,3.6,'11111222,11111222,11111222' 
TCOON,ioos:station:TCOON:005:1,2017-11-01T17:42:00Z,27.6346,-97.2370,0.0,2.8,2.0,3.7,'11111222,11111222,11111222' 
TCOON,ioos:station:TCOON:005:1,2017-11-01T17:48:00Z,27.6346,-97.2370,0.0,3.3,354.0,3.9,'11111222,11111222,11111222' 
TCOON,ioos:station:TCOON:005:1,2017-11-01T17:54:00Z,27.6346,-97.2370,0.0,3.0,355.0,4.1,'11111222,11111222,11111222' 
TCOON,ioos:station:TCOON:005:1,2017-11-01T18:00:00Z,27.6346,-97.2370,0.0,3.1,1.0,4.1,'11111222,11111222,11111222' 
TCOON,ioos:station:TCOON:005:1,2017-11-01T18:06:00Z,27.6346,-97.2370,0.0,2.8,3.0,4.6,'11111222,11111222,11111222' 
TCOON,ioos:station:TCOON:005:1,2017-11-01T18:12:00Z,27.6346,-97.2370,0.0,3.4,352.0,4.3,'11111222,11111222,11111222' 
TCOON,ioos:station:TCOON:005:1,2017-11-01T18:18:00Z,27.6346,-97.2370,0.0,3.4,352.0,4.3,'1111122,1111122,1111122' 
TCOON,ioos:station:TCOON:005:1,2017-11-01T18:24:00Z,27.6346,-97.2370,0.0,3.2,347.0,4.0,'11111222,11111222,11111222' 
TCOON,ioos:station:TCOON:005:1,2017-11-01T18:30:00Z,27.6346,-97.2370,0.0,2.5,14.0,3.4,'11111222,11111222,11111222' 
TCOON,ioos:station:TCOON:005:1,2017-11-01T18:36:00Z,27.6346,-97.2370,0.0,2.4,4.0,3.2,'11111222,11111222,11111222' 
TCOON,ioos:station:TCOON:005:1,2017-11-01T18:42:00Z,27.6346,-97.2370,0.0,2.2,8.0,3.2,'11111222,11111222,11111222' 
TCOON,ioos:station:TCOON:005:1,2017-11-01T18:48:00Z,27.6346,-97.2370,0.0,1.6,26.0,2.9,'11111222,11111222,11111222' 
TCOON,ioos:station:TCOON:005:1,2017-11-01T18:54:00Z,27.6346,-97.2370,0.0,2.6,37.0,3.7,'11111222,11111222,11111222' 
TCOON,ioos:station:TCOON:005:1,2017-11-01T19:00:00Z,27.6346,-97.2370,0.0,2.4,35.0,3.5,'11111222,11111222,11111222' 
TCOON,ioos:station:TCOON:005:1,2017-11-01T19:06:00Z,27.6346,-97.2370,0.0,2.6,29.0,3.2,'11111222,11111222,11111222' 
TCOON,ioos:station:TCOON:005:1,2017-11-01T19:12:00Z,27.6346,-97.2370,0.0,2.6,33.0,3.3,'11111222,11111222,11111222' 
TCOON,ioos:station:TCOON:005:1,2017-11-01T19:18:00Z,27.6346,-97.2370,0.0,2.6,33.0,3.3,'1111122,1111122,1111122' 
TCOON,ioos:station:TCOON:005:1,2017-11-01T19:24:00Z,27.6346,-97.2370,0.0,3.0,30.0,3.7,'11111222,11111222,11111222' 
TCOON,ioos:station:TCOON:005:1,2017-11-01T19:30:00Z,27.6346,-97.2370,0.0,3.0,38.0,3.5,'11111222,11111222,11111222' 
TCOON,ioos:station:TCOON:005:1,2017-11-01T19:36:00Z,27.6346,-97.2370,0.0,3.0,33.0,3.6,'11111222,11111222,11111222' 
TCOON,ioos:station:TCOON:005:1,2017-11-01T19:42:00Z,27.6346,-97.2370,0.0,3.2,34.0,4.3,'11111222,11111222,11111222' 
TCOON,ioos:station:TCOON:005:1,2017-11-01T19:48:00Z,27.6346,-97.2370,0.0,3.6,18.0,4.8,'11111222,11111222,11111222' 
TCOON,ioos:station:TCOON:005:1,2017-11-01T19:54:00Z,27.6346,-97.2370,0.0,3.4,24.0,4.4,'11111222,11111222,11111222' 
TCOON,ioos:station:TCOON:005:1,2017-11-01T20:00:00Z,27.6346,-97.2370,0.0,3.1,21.0,4.2,'11111222,11111222,11111222' 
TCOON,ioos:station:TCOON:005:1,2017-11-01T20:06:00Z,27.6346,-97.2370,0.0,2.9,29.0,4.1,'11111222,11111222,11111222' 
TCOON,ioos:station:TCOON:005:1,2017-11-01T20:12:00Z,27.6346,-97.2370,0.0,3.0,24.0,3.9,'11111222,11111222,11111222' 
TCOON,ioos:station:TCOON:005:1,2017-11-01T20:18:00Z,27.6346,-97.2370,0.0,3.0,24.0,3.9,'1111122,1111122,1111122' 
TCOON,ioos:station:TCOON:005:1,2017-11-01T20:24:00Z,27.6346,-97.2370,0.0,2.8,42.0,3.7,'11111222,11111222,11111222' 